EW1979 Weather Reports


time (UTC)temp
C
wind
direction
speed
KPH
gust
KPH
rain 1hr
cm
rain 24hr
cm
rain mn
cm
humidity
%
barometer
mb
20260903121555 23 213 9.7 0.0 0.00 0.00 0.00 89 1009.2
20260903120042 23 195 11.3 0.0 0.00 0.00 0.00 89 1009.1
20260903114543 23 182 11.3 0.0 0.00 0.00 0.00 88 1008.8
20260903113044 23 186 12.9 0.0 0.00 0.00 0.00 88 1008.8
20260903111545 23 193 12.9 0.0 0.00 0.00 0.00 87 1008.9
20260903110037 23 193 11.3 0.0 0.00 0.00 0.00 87 1008.9
20260903104548 23 168 11.3 0.0 0.00 0.00 0.00 87 1008.7
20260903103032 23 194 11.3 0.0 0.00 0.00 0.00 87 1008.6
20260903101529 23 184 11.3 0.0 0.00 0.00 0.00 87 1008.7
20260903100037 23 213 8.0 0.0 0.00 0.00 0.00 87 1008.7
20260903094527 23 204 9.7 0.0 0.00 0.00 0.00 87 1008.8
20260903093030 23 171 8.0 0.0 0.00 0.00 0.00 87 1009.0
20260903091524 23 182 6.4 0.0 0.00 0.00 0.00 86 1009.1
20260903090022 23 187 8.0 0.0 0.00 0.00 0.00 86 1008.9
20260903084520 24 178 6.4 0.0 0.00 0.00 0.00 83 1009.1
20260903083018 24 166 3.2 0.0 0.00 0.00 0.00 81 1008.9
20260903081520 25 186 6.4 0.0 0.00 0.00 0.00 80 1009.0
20260903080015 25 188 9.7 0.0 0.00 0.00 0.00 79 1008.9
20260903074512 25 213 11.3 0.0 0.00 0.00 0.00 78 1008.4
20260903073019 25 163 8.0 0.0 0.00 0.00 0.00 76 1008.5
20260903071509 25 185 9.7 0.0 0.00 0.00 0.00 76 1008.6
20260903070007 25 169 9.7 0.0 0.00 0.00 0.00 77 1008.9
20260903064503 26 161 8.0 0.0 0.00 0.00 0.00 75 1009.1
20260903063100 26 162 9.7 0.0 0.00 0.00 0.00 73 1008.9
20260903061601 26 152 8.0 0.0 0.00 0.00 0.00 71 1008.7
20260903060117 26 163 8.0 0.0 0.00 0.00 0.00 70 1008.7
20260903054552 27 159 14.5 0.0 0.00 0.00 0.00 68 1008.7
20260903053051 27 169 11.3 0.0 0.00 0.00 0.00 64 1008.9
20260903051547 27 196 11.3 0.0 0.00 0.00 0.00 64 1008.8
20260903050046 27 163 12.9 0.0 0.00 0.00 0.00 65 1008.4
20260903044544 28 168 14.5 0.0 0.00 0.00 0.00 64 1008.6
20260903043044 28 166 11.3 0.0 0.00 0.00 0.00 62 1008.6
20260903041545 28 177 9.7 0.0 0.00 0.00 0.00 58 1008.5
20260903040042 29 153 9.7 0.0 0.00 0.00 0.00 56 1008.3
20260903034542 29 126 1.6 0.0 0.00 0.00 0.00 50 1008.5
20260903033045 29 155 1.6 0.0 0.00 0.00 0.00 49 1008.2
20260903031544 30 153 3.2 0.0 0.00 0.00 0.00 48 1008.2
20260903030049 30 153 1.6 0.0 0.00 0.00 0.00 48 1007.8
20260903024541 30 157 3.2 0.0 0.00 0.00 0.00 47 1007.9
20260903023040 30 121 3.2 0.0 0.00 0.00 0.00 47 1007.7
20260903021546 30 144 3.2 0.0 0.00 0.00 0.00 47 1007.6
20260903020039 30 155 1.6 0.0 0.00 0.00 0.00 47 1007.4
20260903014547 30 126 1.6 0.0 0.00 0.00 0.00 46 1007.5
20260903013039 30 143 3.2 0.0 0.00 0.00 0.00 46 1007.5
20260903011551 30 147 3.2 0.0 0.00 0.00 0.00 45 1007.5
20260903010037 31 146 3.2 0.0 0.00 0.00 0.00 45 1007.1
20260903004538 32 151 4.8 0.0 0.00 0.00 0.00 44 1007.4
20260903003036 32 155 4.8 0.0 0.00 0.00 0.00 44 1007.3
20260903001535 33 172 4.8 0.0 0.00 0.00 0.00 43 1007.3
20260903000045 33 156 4.8 0.0 0.00 0.00 0.00 42 1007.2
20260902234534 34 165 6.4 0.0 0.00 0.00 0.00 41 1007.4
20260902233046 35 142 4.8 0.0 0.00 0.00 0.00 41 1007.2
20260902231533 35 88 3.2 0.0 0.00 0.00 0.00 41 1007.3
20260902230033 35 146 3.2 0.0 0.00 0.00 0.00 41 1007.3
20260902224532 35 103 3.2 0.0 0.00 0.00 0.00 41 1007.2
20260902223031 34 171 6.4 0.0 0.00 0.00 0.00 43 1007.3
20260902221529 33 174 6.4 0.0 0.00 0.00 0.00 43 1007.7
20260902220041 33 156 8.0 0.0 0.00 0.00 0.00 43 1007.9
20260902214546 33 190 4.8 0.0 0.00 0.00 0.00 43 1007.9
20260902213028 33 212 9.7 0.0 0.00 0.00 0.00 42 1007.8
20260902211526 33 207 1.6 0.0 0.00 0.00 0.00 44 1007.8
20260902210028 33 155 4.8 0.0 0.00 0.00 0.00 42 1008.1
20260902204524 34 168 4.8 0.0 0.00 0.00 0.00 42 1008.2
20260902203023 34 127 8.0 0.0 0.00 0.00 0.00 40 1008.5
20260902201531 35 136 3.2 0.0 0.00 0.00 0.00 39 1008.6
20260902194502 35 155 6.4 0.0 0.00 0.00 0.00 40 1008.8
20260902193105 35 64 6.4 0.0 0.00 0.00 0.00 40 1009.1
20260902191602 35 254 6.4 0.0 0.00 0.00 0.00 41 1009.3
20260902184607 34 281 4.8 0.0 0.00 0.00 0.00 42 1010.0
20260902181604 33 152 8.0 0.0 0.00 0.00 0.00 44 1010.4
20260902174504 33 197 8.0 0.0 0.00 0.00 0.00 46 1010.9
20260902173015 33 196 6.4 0.0 0.00 0.00 0.00 48 1011.1
20260902170107 32 181 8.0 0.0 0.00 0.00 0.00 51 1011.5
20260902164503 31 259 9.7 0.0 0.00 0.00 0.00 52 1011.7
20260902163004 31 182 8.0 0.0 0.00 0.00 0.00 50 1011.6
20260902154512 30 177 6.4 0.0 0.00 0.00 0.00 59 1011.7
20260902153004 29 229 9.7 0.0 0.00 0.00 0.00 62 1011.7
20260902151604 28 225 8.0 0.0 0.00 0.00 0.00 63 1011.7
20260902144504 27 207 11.3 0.0 0.00 0.00 0.00 67 1011.9
20260902143106 27 257 6.4 0.0 0.00 0.00 0.00 71 1011.9
20260902141502 26 226 6.4 0.0 0.00 0.00 0.00 75 1011.7
20260902140011 25 246 4.8 0.0 0.00 0.00 0.00 80 1011.9
20260902133004 24 241 4.8 0.0 0.00 0.00 0.00 85 1012.0
20260902131628 23 211 4.8 0.0 0.00 0.00 0.00 86 1011.9
20260902130003 22 207 3.2 0.0 0.00 0.00 0.00 86 1011.7
20260902124504 22 203 4.8 0.0 0.00 0.00 0.00 86 1011.7
20260902123154 22 228 3.2 0.0 0.00 0.00 0.00 86 1011.4